Location: Unspecified
(0.0000°N, 0.0000°E)
Time: 18:32:06
(UTC+00:00)

Okean 3 - Pass Details

Date: 29 May 2019
Orbit: 578 x 600 km, 82.5° (Epoch: 25 June)

Event Time Altitude Azimuth Distance (km) Brightness Sun altitude
Exits shadow 20:19:28 23° 276° (W) 1,259 5.7 -32.7°
Drops below altitude 10° 20:22:38 10° 326° (NW) 1,880 6.7 -33.4°
Sets 20:25:11 0° 341° (NNW) 2,775 7.5 -33.9°
